Location: ??????
(41.3164°N, 22.6615°E)
Time: 03:56:21
(UTC+00:00)

Oscar 19 - Pass Details

Date: 04 July 2022
Orbit: 773 x 790 km, 98.8° (Epoch: 11 August)

Event Time Altitude Azimuth Distance (km) Brightness Sun altitude
Rises 00:29:50 0° 38° (NE) 3,256 15.4 -20.4°
Reaches altitude 10° 00:34:28 10° 77° (ENE) 2,321 13.7 -20.0°
Maximum altitude 00:35:30 11° 89° (E) 2,281 13.4 -19.9°
Drops below altitude 10° 00:36:32 10° 101° (E) 2,318 13.3 -19.8°
Sets 00:41:08 0° 139° (SE) 3,240 13.7 -19.3°
